Wind_Speed
36 38 39 40 40 42 43 43 44 45 45 45 45 45 45 45 46 46 47 46 47 48 49 49 51 52 52 53 55 56 58 58 58 58 58 59 60 60 60 59 59 58 57
38 39 40 41 43 43 45 46 46 47 47 47 46 46 47 47 47 47 47 47 49 50 51 52 53 53 54 55 56 57 57 57 56 56 56 56 55 54 53 52 52 51 50
39 41 42 43 44 45 46 47 47 47 47 47 47 47 47 47 47 48 49 50 51 51 52 53 53 54 54 54 54 54 54 53 52 51 51 50 49 47 46 45 44 44 43
40 42 42 43 44 45 46 46 46 47 47 46 46 46 47 47 47 48 49 50 50 51 51 52 52 52 52 52 51 50 49 48 47 46 45 44 43 41 41 40 39 39 39
40 41 42 42 43 43 44 44 44 44 44 44 44 44 44 45 45 46 47 48 48 48 49 49 49 48 47 47 46 45 44 42 41 40 38 37 36 36 35 35 34 34 33
39 39 39 39 40 40 41 40 40 41 41 41 41 42 42 43 43 43 44 44 45 45 45 45 44 43 42 40 39 37 36 35 34 33 32 31 30 29 29 29 28 28 28
35 35 36 36 37 37 38 38 38 38 38 38 38 39 39 40 41 41 41 41 42 42 42 41 40 38 36 34 32 31 29 28 27 26 25 24 23 23 23 23 24 24 24
32 32 32 33 33 33 33 34 34 34 34 35 36 36 36 37 38 38 38 38 38 38 37 35 32 30 28 26 25 24 22 21 20 19 18 18 18 18 19 19 19 20 20
28 28 28 28 29 29 29 30 30 31 32 32 33 33 34 34 34 35 34 35 33 31 29 26 23 21 20 18 17 17 15 14 14 14 14 15 15 16 17 18 19 19 19
24 25 25 25 26 27 27 28 29 29 29 30 30 30 30 30 30 30 29 28 26 23 21 18 17 15 14 14 13 13 12 11 11 12 13 14 15 17 18 18 19 20 20
23 24 25 25 26 27 27 27 27 27 27 26 26 26 26 25 25 25 24 21 19 17 14 12 11 11 11 11 11 10 10 10 11 12 13 14 15 16 17 18 19 20 20
23 24 25 25 26 26 25 25 24 24 23 23 23 22 22 22 21 20 18 16 14 12 10 9 8 9 10 10 10 10 10 11 11 12 14 14 15 16 17 17 18 18 19
22 23 23 23 23 22 22 21 21 21 20 20 19 19 19 19 17 15 14 12 11 9 8 8 8 9 10 10 10 11 11 12 12 13 14 15 16 16 17 18 18 17 18
20 20 20 19 19 19 19 18 18 18 17 16 16 16 16 15 14 12 11 10 9 8 8 8 9 10 11 11 11 12 12 13 13 14 15 16 16 17 17 17 17 16 16
18 17 16 17 17 17 16 15 15 15 15 14 13 13 13 12 11 10 9 8 8 8 8 9 10 10 10 11 11 12 13 14 14 14 15 16 16 16 16 16 15 15 15
16 15 15 15 15 14 13 13 13 13 12 11 11 12 11 10 9 9 8 7 8 8 9 9 9 10 10 11 12 13 13 14 14 14 15 15 15 15 15 14 14 14 14
15 14 13 12 12 12 11 11 11 11 10 9 10 10 9 9 9 8 8 8 8 9 9 9 10 10 11 12 13 13 14 14 14 14 14 14 15 14 14 13 13 13 12
13 13 11 11 10 10 10 9 9 9 8 8 8 8 8 8 8 8 8 8 8 9 9 10 10 11 12 13 13 13 14 14 14 14 14 14 14 14 13 13 12 12 12
12 11 10 10 9 9 8 8 8 7 7 7 7 7 7 7 7 7 7 8 9 9 10 10 11 12 12 13 13 14 14 14 14 14 14 14 14 13 12 12 12 11 11
9 9 8 8 7 7 7 7 6 6 6 6 6 6 6 6 7 7 8 9 9 10 10 11 12 13 13 13 13 14 14 14 14 14 14 14 13 13 12 11 11 11 11
6 6 5 5 6 6 6 6 5 5 5 5 5 5 6 6 7 7 8 9 9 10 11 12 12 13 13 13 14 14 15 15 14 14 14 13 13 12 11 11 11 10 10
5 4 4 4 4 4 5 5 5 5 5 5 5 5 6 6 7 7 8 9 9 10 11 12 12 13 13 14 14 15 15 14 14 14 14 13 13 12 11 10 10 10 11
7 6 5 4 4 4 5 5 5 5 5 5 5 5 5 6 7 7 8 9 10 10 11 12 12 13 13 14 15 15 15 15 14 14 14 13 12 12 11 10 10 10 10
8 8 7 6 6 5 5 5 5 5 5 5 6 6 6 7 7 8 8 9 10 11 12 12 13 13 14 14 15 15 15 15 15 14 14 13 13 12 11 11 10 10 11
10 9 8 8 7 7 7 6 6 6 6 6 7 7 8 8 8 8 9 10 11 11 12 13 13 14 14 14 15 15 15 16 15 15 14 14 13 13 12 12 12 11 11
12 11 10 9 9 8 8 8 8 8 8 8 8 8 9 9 9 10 10 11 11 12 12 13 14 14 14 15 15 15 16 16 16 16 15 15 14 14 14 14 13 13 13
Wind_Direction
270 273 276 279 282 285 288 290 291 291 292 292 293 293 293 292 293 290 289 290 290 290 290 288 289 289 287 286 285 284 285 284 284 284 284 284 284 285 285 286 287 287 287
272 274 277 280 282 285 287 288 289 289 291 292 292 291 290 291 291 289 288 289 290 290 290 290 290 290 289 287 287 286 286 285 286 286 287 287 287 288 288 289 291 291 290
274 276 278 280 282 284 285 286 287 288 289 290 289 289 289 290 290 290 291 291 292 292 292 292 291 291 290 289 288 288 288 288 287 287 287 287 288 289 290 291 293 294 295
274 276 278 280 281 282 283 284 285 286 287 288 289 290 292 292 293 293 294 294 294 294 294 293 292 291 290 290 290 289 289 289 288 288 289 289 290 291 292 294 296 298 299
275 277 278 279 280 281 283 284 285 287 289 289 291 293 294 296 296 297 297 297 296 296 295 295 294 293 293 292 292 291 291 291 291 291 291 292 293 295 297 299 300 301 301
275 277 278 280 281 283 285 287 288 290 291 293 295 296 297 298 299 300 300 299 298 298 297 297 296 295 294 295 295 295 295 296 297 297 297 298 300 302 303 304 305 305 305
276 278 280 281 282 284 287 289 291 292 294 296 297 298 300 300 301 301 301 300 300 300 299 299 298 298 298 298 298 299 299 301 304 305 306 307 308 310 312 313 314 314 314
279 280 282 283 285 287 290 292 293 295 297 298 299 300 302 302 303 303 302 302 302 301 301 301 302 303 304 305 305 307 309 311 315 317 318 319 320 322 325 326 326 326 327
281 283 285 287 289 292 294 296 297 298 299 301 302 303 304 306 306 306 306 306 306 305 305 306 308 309 312 315 317 319 321 324 328 330 332 335 336 338 339 339 338 337 336
288 289 290 292 293 294 295 296 298 300 302 304 305 306 308 310 311 311 312 312 311 310 311 313 316 319 322 326 330 333 336 340 344 345 345 346 346 345 343 342 340 339 338
294 293 293 293 294 295 295 296 298 301 304 305 307 309 312 314 317 318 318 319 319 320 323 326 330 334 340 343 345 349 351 352 352 351 349 348 347 345 343 341 338 338 337
296 295 294 294 294 295 296 297 299 301 304 306 309 312 316 319 321 323 325 327 329 333 336 341 345 349 351 352 354 355 354 353 352 350 347 344 342 340 339 338 337 336 336
299 298 297 297 297 297 297 298 300 302 304 307 310 313 317 321 325 328 331 333 338 343 348 350 351 352 352 353 355 355 355 354 351 348 344 341 339 337 336 336 337 338 339
302 301 301 300 299 297 296 298 301 303 306 308 312 316 320 323 327 330 334 335 337 344 349 348 349 351 352 351 351 352 349 346 344 342 340 339 338 336 336 338 339 340 342
305 304 304 305 304 301 298 299 302 305 308 309 314 319 323 326 329 333 335 337 341 344 346 347 349 348 347 347 348 346 343 341 339 339 337 336 337 338 339 340 341 343 343
305 305 305 305 305 305 302 303 306 309 311 314 319 323 326 329 333 335 337 339 342 343 345 344 344 344 344 344 344 342 341 339 338 338 339 340 340 341 342 343 344 344 345
305 305 306 306 305 306 306 306 308 312 315 319 324 326 328 331 333 335 338 341 344 346 346 344 343 343 343 341 340 340 340 340 339 340 341 341 342 343 345 345 346 347 349
303 304 305 306 306 306 307 309 311 315 319 322 326 328 331 335 338 340 342 346 347 347 346 346 346 346 344 342 342 342 343 343 343 344 345 344 345 346 347 349 351 353 355
303 301 301 303 305 308 310 313 316 320 323 326 328 330 333 339 345 347 348 349 348 347 348 349 349 348 347 345 345 346 346 346 346 346 347 347 348 349 350 352 356 360 2
309 306 303 304 308 313 318 321 322 324 326 330 333 336 339 344 348 350 353 351 350 351 351 352 352 351 351 351 351 350 350 349 349 349 351 352 353 354 357 359 2 5 9
320 319 317 313 315 321 328 333 334 335 337 340 343 348 351 353 354 355 357 357 356 356 356 356 356 356 357 357 356 354 354 353 354 354 356 357 358 359 1 5 9 12 15
356 351 345 337 335 336 340 344 344 343 345 349 353 358 360 0 1 1 2 2 1 0 1 3 3 3 3 2 1 0 0 0 1 1 1 2 2 4 7 12 17 20 23
24 22 18 14 11 7 3 2 2 1 1 5 7 8 9 9 9 9 8 7 7 7 9 9 9 10 9 8 7 8 7 7 7 7 7 9 11 12 15 20 24 27 30
32 34 34 33 29 23 19 19 23 24 24 23 23 22 21 19 18 18 16 15 16 16 16 15 16 15 14 13 13 14 14 14 14 15 15 18 20 23 26 31 34 36 37
39 40 38 37 34 33 33 35 37 37 35 34 34 33 31 30 29 28 26 24 23 23 21 21 20 19 19 19 19 19 20 21 23 24 25 27 29 33 37 40 42 43 44
42 43 43 42 41 43 45 46 46 47 46 44 43 42 41 39 38 36 32 30 29 27 26 25 25 25 25 25 25 26 27 28 30 32 34 36 39 43 46 48 50 52 53
Height
5798 5798 5797 5797 5796 5795 5793 5791 5789 5788 5786 5783 5781 5779 5777 5775 5772 5770 5767 5764 5761 5758 5755 5752 5748 5744 5740 5736 5732 5727 5723 5718 5714 5709 5704 5698 5694 5690 5685 5680 5676 5671 5666
5790 5790 5789 5788 5787 5786 5784 5782 5780 5778 5775 5773 5770 5769 5766 5764 5761 5758 5756 5752 5750 5746 5742 5738 5734 5730 5726 5722 5717 5712 5707 5702 5698 5693 5688 5683 5678 5674 5670 5665 5661 5656 5651
5782 5781 5780 5779 5777 5776 5774 5772 5769 5767 5765 5763 5760 5758 5755 5753 5750 5747 5744 5740 5737 5733 5729 5725 5720 5716 5711 5706 5701 5696 5691 5686 5682 5678 5674 5669 5665 5660 5657 5652 5648 5643 5638
5772 5771 5770 5769 5767 5766 5764 5762 5759 5757 5755 5752 5750 5747 5744 5741 5738 5735 5732 5728 5724 5720 5715 5711 5706 5701 5696 5691 5686 5681 5677 5672 5668 5664 5660 5657 5652 5648 5645 5641 5637 5632 5628
5763 5762 5761 5759 5757 5755 5754 5751 5749 5747 5745 5742 5739 5737 5734 5730 5727 5724 5720 5716 5711 5707 5702 5697 5692 5687 5681 5676 5672 5667 5663 5659 5655 5651 5648 5645 5641 5638 5634 5631 5627 5624 5619
5753 5752 5751 5750 5748 5746 5744 5742 5740 5737 5735 5733 5730 5727 5724 5720 5716 5712 5708 5704 5699 5694 5689 5684 5679 5674 5669 5664 5660 5656 5652 5648 5645 5641 5638 5635 5632 5629 5626 5623 5619 5616 5612
5744 5743 5742 5741 5739 5737 5735 5733 5731 5728 5726 5723 5720 5717 5714 5710 5706 5702 5697 5693 5688 5683 5678 5673 5668 5663 5659 5654 5650 5646 5643 5640 5637 5634 5631 5628 5626 5623 5620 5616 5613 5609 5606
5736 5735 5733 5732 5730 5728 5726 5724 5722 5720 5717 5714 5711 5708 5705 5701 5697 5692 5687 5683 5678 5672 5668 5663 5658 5654 5650 5646 5643 5640 5637 5634 5632 5629 5627 5624 5621 5618 5615 5612 5608 5605 5601
5728 5727 5725 5724 5722 5720 5719 5716 5714 5712 5709 5706 5703 5700 5696 5692 5688 5683 5678 5673 5668 5663 5659 5655 5651 5648 5645 5642 5639 5636 5633 5631 5629 5626 5624 5621 5618 5615 5612 5609 5606 5602 5599
5721 5720 5718 5717 5715 5713 5711 5709 5707 5704 5702 5699 5695 5692 5688 5684 5680 5675 5671 5666 5661 5657 5653 5650 5647 5645 5642 5639 5637 5634 5631 5629 5627 5624 5622 5619 5616 5613 5610 5607 5603 5600 5596
5715 5713 5711 5710 5708 5706 5704 5702 5699 5697 5695 5692 5689 5685 5682 5678 5674 5669 5665 5661 5657 5653 5650 5648 5646 5643 5641 5638 5636 5633 5631 5628 5626 5624 5621 5618 5615 5612 5609 5605 5601 5598 5594
5708 5706 5704 5703 5701 5699 5697 5695 5693 5691 5688 5686 5683 5680 5676 5673 5669 5665 5662 5658 5655 5652 5649 5647 5645 5643 5640 5638 5635 5633 5630 5628 5625 5623 5620 5617 5614 5611 5608 5604 5600 5596 5592
5701 5699 5697 5695 5694 5692 5690 5689 5687 5685 5683 5681 5678 5675 5672 5669 5666 5663 5660 5657 5654 5652 5649 5647 5645 5643 5640 5638 5635 5633 5630 5627 5625 5622 5619 5616 5613 5610 5606 5602 5598 5595 5591
5696 5693 5691 5689 5688 5686 5685 5683 5682 5680 5679 5677 5674 5672 5669 5666 5664 5661 5659 5656 5654 5651 5649 5647 5645 5642 5640 5637 5635 5632 5629 5627 5624 5621 5618 5615 5611 5608 5605 5601 5597 5593 5590
5690 5688 5686 5685 5683 5681 5680 5679 5678 5676 5675 5673 5671 5669 5666 5664 5662 5660 5657 5655 5653 5651 5649 5647 5644 5642 5639 5637 5634 5632 5629 5626 5623 5620 5617 5613 5610 5607 5603 5600 5596 5592 5589
5686 5684 5682 5681 5679 5678 5677 5676 5674 5673 5671 5670 5668 5666 5664 5662 5660 5658 5656 5654 5652 5650 5648 5646 5644 5641 5639 5637 5634 5631 5628 5625 5622 5619 5616 5612 5609 5605 5602 5598 5595 5592 5588
5682 5681 5679 5678 5677 5675 5674 5673 5672 5671 5669 5668 5666 5664 5663 5661 5659 5657 5656 5654 5652 5650 5648 5646 5644 5641 5639 5636 5633 5630 5627 5624 5621 5618 5615 5611 5608 5604 5601 5598 5594 5591 5588
5679 5677 5676 5675 5674 5673 5672 5671 5670 5668 5667 5666 5664 5663 5661 5660 5658 5656 5655 5653 5652 5650 5648 5646 5643 5641 5638 5635 5632 5629 5626 5623 5620 5617 5613 5610 5607 5603 5600 5597 5594 5591 5588
5675 5674 5673 5672 5672 5671 5670 5669 5668 5667 5665 5664 5663 5662 5660 5659 5658 5656 5655 5653 5651 5650 5648 5645 5643 5640 5638 5635 5632 5629 5626 5622 5619 5616 5613 5609 5606 5603 5600 5597 5594 5591 5588
5672 5671 5670 5670 5670 5669 5668 5667 5666 5665 5664 5663 5662 5661 5660 5659 5657 5656 5654 5653 5651 5649 5647 5645 5643 5640 5637 5634 5631 5628 5625 5622 5619 5615 5612 5609 5605 5602 5599 5596 5594 5591 5588
5670 5669 5669 5669 5668 5668 5667 5666 5665 5665 5664 5663 5662 5661 5659 5658 5657 5656 5654 5653 5651 5649 5647 5645 5642 5640 5637 5634 5631 5628 5624 5621 5618 5615 5611 5608 5605 5602 5599 5597 5594 5591 5589
5669 5669 5668 5668 5668 5667 5667 5666 5665 5664 5663 5662 5661 5660 5659 5658 5657 5656 5655 5653 5652 5650 5647 5645 5643 5640 5637 5634 5631 5627 5624 5621 5617 5614 5611 5608 5605 5602 5600 5597 5595 5592 5590
5670 5669 5669 5668 5668 5667 5667 5666 5665 5664 5663 5662 5662 5661 5660 5659 5658 5657 5655 5654 5652 5650 5648 5646 5643 5640 5637 5634 5631 5628 5625 5621 5618 5615 5612 5609 5606 5603 5601 5598 5596 5594 5591
5672 5671 5670 5669 5669 5668 5667 5667 5666 5665 5664 5663 5662 5662 5661 5660 5659 5657 5656 5655 5653 5651 5649 5647 5644 5641 5638 5635 5632 5629 5625 5622 5619 5616 5613 5610 5607 5605 5602 5600 5597 5595 5593
5675 5673 5672 5671 5670 5669 5669 5668 5667 5666 5666 5665 5664 5663 5662 5661 5660 5659 5657 5656 5654 5652 5650 5648 5645 5643 5640 5637 5634 5630 5627 5624 5620 5617 5614 5612 5609 5607 5604 5602 5600 5598 5596
5678 5676 5674 5673 5672 5671 5670 5669 5669 5668 5667 5666 5666 5665 5664 5663 5662 5660 5659 5658 5656 5654 5652 5649 5647 5644 5641 5638 5635 5632 5629 5626 5623 5620 5617 5614 5612 5609 5607 5605 5603 5601 5599